CAPE
1849 2044 1843 1608 1531 1332 1338 1446 1352 1168 987 684 728 710 689 1132 1477 1729 1771 1679 1864 2191 2241 2281 2378 2484 2568 2631 2088 2047 2605 2608 2318 2608 3566 3759 3593 3334 3208 3348 3995 3684 3870 3302 2761 2261 2588 2938 3221 3252 2924 2568 2308 2207 2014 2051 2082 1985 1848 2614 2740 2960 2742 2998 3396 2514 3026 2678 2394 1750 861 763 438 320 283 344 265 517 536 448 435 272 116 114 2621
1716 1850 1896 1874 1835 1753 1398 983 1269 1174 862 856 761 414 409 741 998 1133 1483 1873 1851 1834 2366 2260 2089 2322 2254 2140 2260 2042 2460 2867 2711 2352 2623 3716 3808 3212 2314 2991 4136 4174 4196 3880 3832 2363 2631 3021 3271 2821 2795 2474 2218 1775 1796 1628 1126 1637 1903 1696 2336 2828 2689 3026 3087 2738 2784 2677 2128 1708 1505 1458 1139 785 653 365 474 581 631 362 456 242 87 420 3153
1050 1811 1345 1840 2176 2086 1898 1820 1735 1272 832 633 658 519 522 436 556 710 780 1081 1643 1812 1924 2071 2061 2079 1932 1925 1982 2083 2399 2806 2908 2575 2384 2613 3056 2710 2566 2567 3086 3011 2880 3260 3071 2950 2970 2770 2925 3190 2741 2355 2302 2229 1908 1638 1282 1214 1168 1991 1478 1412 2227 2726 2951 2817 2615 2574 2310 1910 1846 1522 1003 638 584 392 734 548 847 902 464 298 478 601 808
2775 1973 2169 2104 1893 1905 2124 2077 1934 1726 1400 1184 735 604 398 177 381 306 810 703 631 1525 1658 1681 1599 1936 2286 2198 2126 2347 2281 2248 2506 2694 2666 2605 2944 3352 3351 2931 2821 2521 2522 2586 2684 3006 2674 2722 2849 2624 2536 2548 2436 2114 1914 2090 1355 1484 1410 1512 2264 2217 2044 2507 2985 3298 3310 2425 2517 1954 1446 950 628 757 395 336 268 346 533 794 616 854 1144 1421 573
2024 2249 2066 2570 2375 2384 1675 1838 1881 1839 1777 1216 1104 703 447 221 201 296 427 365 413 475 1222 1621 1422 1765 1841 1989 2151 2048 2304 2558 2712 2447 2339 2349 2411 2704 2487 2602 2831 2714 2880 2781 2850 2750 2397 2470 2439 2760 2859 2512 2745 2446 1944 1750 1476 1454 1501 1889 2243 2531 2574 2540 2710 3211 3887 3418 2662 2852 2162 1424 925 1093 878 960 808 732 1102 1374 1310 1697 1674 1769 1198
1730 1192 1924 2918 3404 3243 2988 2520 2105 1599 1496 1479 1506 1013 384 260 228 210 282 396 361 328 353 885 1211 1328 1623 1979 2022 2180 2185 2565 2629 2977 2432 2156 2008 2240 2335 2949 2812 2548 2475 2387 2554 2900 2507 2655 2728 2384 2621 2378 2781 2679 2401 2844 2078 1971 1932 1874 1912 2389 2722 2802 2849 3182 3441 3710 3422 2865 3033 1653 1322 1486 1386 1528 1813 1750 1654 1365 1362 1321 2209 2535 2051
2231 2467 2460 2983 3020 3140 2890 3045 2586 2018 2492 2938 2999 2252 1048 371 332 266 303 363 362 334 242 233 752 1327 1566 1635 2033 2303 2624 2276 3045 3502 3290 2620 2312 1913 1884 2323 2209 2212 1897 1619 1828 2003 1811 2147 2324 2426 2329 2531 2380 2133 2229 2139 2058 1508 2020 2609 2222 2202 2239 2480 2788 2771 3433 3427 2492 2774 2659 2740 2882 2427 2485 1120 2098 2655 2280 2197 1921 2112 2460 2229 2608
2792 2747 3149 3125 2960 2566 2530 2654 1932 1863 2376 2000 2044 2778 1992 1461 349 597 504 470 549 507 256 177 131 508 1198 1940 2369 2593 3347 3070 3285 3567 3070 3227 2613 2149 1895 1878 1595 2520 1852 1723 1898 1666 1313 1804 1429 1587 1877 1637 2726 2551 2321 2598 2566 2006 2886 2291 2460 1387 1932 1603 2272 2562 2771 2466 2043 2628 2276 2295 3749 2920 3280 1507 1958 3051 2215 2067 2180 1284 1683 2508 2427
2438 2694 2982 2880 2459 2301 3346 2104 1662 1645 2332 2856 2971 2673 2183 1454 1102 1421 1396 518 494 292 634 332 270 323 424 1081 2336 2946 2928 3547 2875 2865 2981 3052 2668 1725 1683 2093 2852 2895 2812 2082 1612 1853 2334 2303 1710 2038 1711 1301 1795 2273 2339 3200 3404 3242 3405 2617 2094 1843 1834 2398 2402 1652 1727 1920 2237 2024 1645 2011 3118 3242 2329 2701 2914 3216 2314 1452 1512 1399 1270 1558 2246
2517 2364 2171 2396 2837 3058 3367 2596 2061 1679 1793 1828 2376 2095 2382 2793 2520 2005 1605 1267 1196 827 829 370 370 297 440 829 1720 2217 3218 2587 1729 1858 2489 2568 2335 2058 1854 1920 2478 3071 2699 2591 2422 2074 2190 2982 2935 2785 2310 2496 2583 3081 3454 3109 3524 3160 3556 2063 2454 2476 2287 2276 2464 2773 2037 1438 1106 1197 1028 2177 2244 2652 2668 2878 2451 2932 2185 1920 1582 1079 858 1384 1924
2188 1830 2197 2616 2263 2555 2965 2309 1890 1819 1840 2151 2119 2219 2068 2225 2288 2155 1719 1584 1670 1828 1717 472 614 685 551 550 1198 1276 1371 1465 1514 1812 2105 2244 2438 3038 2152 1684 1496 1879 3088 3077 2494 2073 1987 2255 2930 2899 2534 2311 1511 1556 2864 2904 2804 3176 3103 3025 3236 2124 1795 2314 1844 2369 1715 1310 1310 1037 795 1074 1640 2791 2558 2001 1567 1825 1894 1419 1201 1192 909 1632 1826
2306 2442 2538 2054 1861 1898 2721 2325 1932 1796 1236 1656 2199 2362 2903 2977 2912 2474 1930 1737 2243 1842 1472 816 650 972 1266 1084 898 979 1098 896 1234 1815 2003 1865 1752 2479 2539 2426 1865 1895 2003 2207 2275 2770 2922 2799 2429 2494 1683 1529 1439 1722 2536 3039 2867 2603 2740 3357 2882 2356 2223 2369 2426 2261 2286 1269 1246 1501 1413 1304 1337 1503 1517 1962 2294 3377 2461 1792 1242 1030 1051 1100 1928
2147 2220 2180 2146 2416 1681 1801 2353 2540 2180 1688 1719 2251 2800 2488 2328 2595 2368 2324 1861 1534 1575 1305 1330 1312 1593 1816 1396 1085 890 847 718 744 1176 1448 1863 1841 1699 1585 1837 2396 1871 1431 1340 2500 2713 3284 3197 2064 1874 1628 1480 2077 1923 2337 2510 2596 2607 3414 2834 2245 1660 1605 1610 1404 1910 2187 1492 1452 1478 1264 1277 1424 2019 2311 2140 2911 2373 2135 2010 1586 1284 1205 1576 2407
1998 2208 2094 1906 1670 1878 2310 2412 2686 2840 2337 2265 1835 1958 1890 2068 1996 1987 1688 1542 1455 1036 1205 1161 1505 1933 1869 1353 994 1016 921 1238 1344 1238 1388 1602 1672 1535 1183 1512 1310 1615 1647 1061 1107 1888 2990 1684 2048 2230 1453 1413 1287 1476 1760 1676 1820 1859 2283 2562 2725 2844 2268 1636 1437 1736 1678 1622 1718 1399 1508 1727 1990 2377 2732 3004 3231 2852 2106 1838 1144 1335 1713 1563 1564
1954 2332 2086 1728 2208 1811 2133 2310 2089 2090 2067 1928 1656 1672 1114 1504 1991 2354 2133 1742 1326 1376 1023 1253 1623 1538 1212 1100 906 881 742 738 860 908 907 922 802 630 594 1368 1998 1539 1495 1624 1745 1485 1790 1862 1701 1822 1591 1531 1221 1133 1324 1524 1940 1848 1790 1896 2158 2292 2618 2410 2340 2466 2479 2188 2029 1842 1894 1949 2657 2497 2829 3912 3338 2764 1690 1755 2080 1908 1574 1632 1020
1404 1246 1193 1535 1353 1236 1440 1418 1537 1490 1436 1528 1507 1564 1603 1911 1486 1482 1328 1184 1195 1314 1074 916 912 1177 1200 1156 1213 724 633 735 757 751 780 747 620 504 936 1849 1824 1629 2119 1486 1782 1852 1464 1092 1291 945 1402 1380 1275 1175 1158 1212 1366 1538 1398 1219 1727 1708 1943 2267 2206 2516 2858 2835 2298 1891 1887 1922 1559 1712 2474 2869 3257 2561 1574 1833 1949 1482 1030 1034 1206
1217 1058 936 834 943 847 978 866 1256 1218 1176 1510 1577 1401 1064 1183 856 1006 1108 1070 1093 1014 806 726 632 903 1042 947 570 343 358 476 550 490 518 520 543 565 1220 1399 1751 2065 1838 1728 1448 1064 660 608 796 759 1061 1117 1066 971 892 904 898 1123 1244 1085 1241 1279 1285 1816 1500 1046 1211 1173 882 1058 1106 1392 1646 1701 1700 1759 1731 1369 1275 1338 1328 788 1564 967 835
998 871 768 694 642 565 598 682 669 656 726 766 806 790 740 603 621 649 627 707 722 685 542 499 475 408 382 449 469 518 537 485 377 325 327 384 451 525 836 711 726 1032 1670 1526 1549 1105 625 567 568 435 425 540 558 496 407 309 264 696 959 954 714 924 928 1094 1034 2875 1355 1240 967 816 784 823 1140 1470 1703 1745 1809 1658 1359 1074 1003 949 967 912 608
649 561 504 487 488 454 460 446 412 432 415 498 525 572 533 507 455 476 536 516 421 318 325 313 276 304 264 238 270 308 260 216 207 240 277 339 374 346 405 386 570 489 561 499 534 426 561 427 326 287 246 231 189 162 142 128 118 110 221 478 706 840 1306 1159 878 1027 1211 1081 1296 1431 1006 688 629 865 1100 1209 1364 1408 1192 1060 724 597 683 448 303
409 313 305 304 278 367 280 320 355 317 222 418 354 383 432 379 326 288 167 161 126 148 134 150 173 129 117 138 170 166 130 126 114 122 129 125 131 231 231 212 327 354 313 274 264 237 198 166 168 162 132 108 76 65 70 82 75 69 69 81 206 378 239 306 430 492 545 744 996 768 1221 1690 1494 1276 921 906 901 847 729 710 362 260 378 271 276
585 576 460 411 358 400 440 328 200 246 200 199 250 381 510 408 166 79 78 102 124 146 143 146 148 153 190 170 148 132 102 97 78 90 123 112 109 138 117 130 128 108 95 81 113 136 129 123 107 109 110 98 76 54 58 72 79 85 80 50 15 0 36 82 84 77 60 153 488 866 1136 642 1141 887 803 642 388 451 487 384 257 173 135 93 54
378 398 399 471 469 437 432 455 411 353 318 250 188 198 184 155 149 140 149 163 158 183 163 214 197 191 172 144 82 67 67 62 72 53 54 67 74 91 82 63 37 31 41 58 57 70 78 84 79 64 36 20 10 1 0 0 2 21 0 35 0 0 0 0 0 0 21 82 251 442 608 824 952 620 640 382 340 347 287 233 161 149 76 9 0
210 250 248 247 285 312 294 290 238 192 139 136 150 131 156 168 187 193 194 182 187 192 195 167 131 107 75 38 32 36 37 44 41 43 41 48 38 29 30 26 22 16 16 18 24 28 24 21 16 0 0 0 0 0 0 0 0 0 0 0 0 0 0 0 6 14 48 89 158 118 55 38 144 336 278 284 247 140 224 190 64 1 0 0 0
240 218 76 8 2 88 134 130 150 153 103 82 77 23 14 18 18 16 56 92 97 111 88 63 40 32 32 31 24 24 36 33 25 18 2 2 1 12 15 16 19 17 14 14 18 15 10 7 6 8 9 13 0 0 0 0 0 7 11 34 0 0 0 14 18 54 60 90 38 20 27 73 126 154 204 174 35 32 15 43 40 3 0 0 12
138 149 61 0 0 0 0 1 27 15 28 27 35 32 23 24 18 27 23 2 4 2 3 4 10 21 0 25 35 35 31 28 24 18 0 8 0 0 0 0 0 2 4 16 16 17 11 14 24 24 27 27 17 20 11 0 8 38 37 0 0 26 58 57 0 11 79 55 29 28 15 24 82 108 105 36 62 38 3 0 13 4 3 0 0
0 0 0 0 0 0 0 0 0 0 1 1 4 3 8 6 50 55 46 32 8 1 4 2 0 0 0 0 0 0 0 0 0 0 0 0 0 9 0 0 0 10 13 0 0 0 0 0 0 0 0 0 4 88 93 62 5 0 0 0 37 25 16 82 16 42 40 19 7 10 9 3 70 109 110 24 36 19 17 9 2 0 0 0 0
0 0 0 0 0 0 0 0 0 0 0 0 0 0 0 0 1 10 21 8 7 3 1 0 0 0 0 0 0 0 0 0 0 0 0 0 0 0 0 0 0 0 0 0 0 0 0 26 52 3 6 0 11 25 19 3 0 14 76 211 8 5 10 75 34 36 28 20 17 15 2 6 11 22 33 5 0 0 0 0 0 0 0 1 0
0 0 0 0 0 0 0 0 0 0 0 0 0 0 0 0 0 0 0 0 0 0 0 0 0 0 0 0 0 0 0 0 0 0 0 0 0 0 0 0 0 0 0 0 0 0 0 34 68 118 807 286 216 58 146 63 37 28 4 9 22 14 14 20 28 34 29 26 19 22 16 5 1 0 0 0 0 0 0 0 0 0 0 0 0
0 0 0 0 0 0 0 0 0 0 0 0 0 0 0 0 0 0 0 0 0 0 0 0 0 0 0 0 0 0 0 0 0 0 0 0 0 0 0 0 0 0 0 0 0 0 29 0 0 0 0 0 0 0 0 0 0 0 0 0 8 13 8 5 1 2 11 18 17 11 2 1 0 0 0 0 0 0 0 0 0 0 3 4 2
0 0 0 0 0 0 0 0 0 0 0 0 0 0 0 0 0 0 0 0 0 0 0 0 0 0 0 0 0 0 0 0 0 0 0 0 0 0 0 0 0 0 0 0 0 60 0 0 0 0 0 0 0 0 0 0 0 0 0 0 1 0 1 2 3 14 2 8 8 3 1 0 1 1 1 0 0 0 0 0 0 0 0 0 0
22 0 0 0 0 0 0 0 0 0 0 0 0 0 0 0 0 0 0 0 0 0 0 0 0 0 0 0 0 0 0 0 0 0 0 0 0 0 0 0 0 0 0 0 247 3 3 0 0 0 0 0 0 2 1 0 0 0 0 0 0 0 0 0 0 2 2 2 2 3 2 0 2 2 0 4 3 5 3 2 0 1 0 0 0
19 14 2 4 0 0 0 0 0 0 0 0 0 0 0 0 0 0 0 0 0 0 0 0 0 0 0 0 0 0 0 0 0 0 0 0 0 0 0 0 0 0 0 0 328 0 0 0 0 0 0 0 1 3 4 10 5 4 5 0 0 0 0 0 0 0 0 0 0 2 2 4 5 8 5 8 8 4 0 0 0 7 6 2 0
68 23 33 20 12 0 0 0 0 0 0 0 1 1 0 0 0 0 0 0 0 0 0 0 0 0 0 0 0 0 0 0 0 0 0 0 0 0 0 0 0 0 0 0 0 0 0 0 0 0 0 0 3 4 7 9 10 10 3 2 2 3 4 3 1 1 0 0 0 0 1 5 8 8 6 1 0 1 5 0 0 0 1 0 3
0 0 44 16 18 0 0 0 2 7 35 69 27 2 15 8 6 0 0 0 0 0 0 0 0 0 0 0 0 0 0 0 0 0 0 0 0 0 0 0 0 0 0 0 0 0 0 0 0 0 0 1 0 2 6 6 4 6 9 0 2 2 2 3 2 0 2 1 3 1 1 2 2 2 3 2 2 0 1 2 4 3 1 0 0
0 0 0 0 135 64 2 2 1 2 5 24 14 20 8 0 5 18 12 3 5 4 0 0 0 0 0 0 0 0 0 0 0 0 0 0 0 0 0 56 202 1 8 0 0 0 0 0 0 0 0 0 0 0 3 4 3 2 1 6 7 5 2 3 1 0 0 0 0 0 0 0 0 0 0 0 0 2 2 1 0 0 0 0 1
4 10 8 4 16 14 21 10 1 0 12 15 14 34 28 28 13 22 8 3 11 12 14 1 0 0 0 0 0 0 0 0 0 0 0 0 0 0 88 2 0 0 0 0 0 0 0 0 0 0 0 0 0 0 0 0 0 1 0 0 1 0 0 1 0 0 0 0 0 0 1 0 0 0 0 0 0 0 0 0 0 0 0 0 0
1 2 3 14 6 6 18 21 15 54 0 1 8 13 16 29 37 40 46 23 12 22 7 29 1 0 0 0 0 0 0 0 0 0 0 0 0 39 0 0 0 0 0 0 0 0 0 0 0 0 0 0 0 0 0 0 0 0 0 0 1 1 0 0 0 0 0 0 1 1 0 0 0 0 0 0 0 0 0 0 0 0 0 0 0
0 0 37 48 104 6 6 10 3 2 1 5 10 4 5 15 16 20 23 17 37 17 18 96 40 26 16 26 1 0 0 0 0 0 0 0 41 0 0 0 0 0 0 0 0 0 0 0 0 0 0 0 0 0 0 0 0 0 0 0 1 5 0 0 0 1 0 0 0 1 0 0 0 0 0 0 0 0 0 0 0 0 0 0 0
44 21 0 0 0 0 19 2 4 6 9 6 5 10 13 10 14 17 12 18 20 23 24 22 32 25 14 84 25 12 0 1 12 40 18 11 3 2 4 4 1 0 0 0 0 0 0 0 0 0 0 0 0 0 0 0 0 0 2 2 0 0 0 0 0 2 0 0 0 0 0 0 1 2 1 0 0 0 0 0 0 0 0 0 0
0 4 6 0 0 3 20 0 2 7 13 3 3 4 16 17 16 12 20 23 18 16 16 17 20 17 10 92 65 63 24 18 22 22 24 12 24 20 10 16 9 2 2 0 0 0 0 0 0 1 9 2 0 0 1 1 0 0 0 0 1 1 0 0 0 0 0 0 0 0 0 0 0 1 0 0 0 0 0 0 0 0 0 0 0
0 0 16 20 0 0 0 0 0 6 11 12 16 24 39 22 15 7 8 12 13 17 22 22 15 118 13 23 11 9 10 5 13 10 15 10 10 5 5 15 17 4 19 6 1 3 1 3 8 4 2 3 3 0 0 0 0 0 0 1 1 3 1 1 3 4 1 1 0 0 2 1 0 0 0 0 0 0 2 0 0 0 1 0 0
0 0 0 0 48 10 1 0 4 17 21 16 16 14 12 6 6 10 11 10 13 12 15 15 13 34 0 0 0 0 9 5 0 0 0 0 6 4 0 4 4 9 4 5 5 7 6 3 4 9 4 2 0 0 0 2 0 0 0 0 0 0 0 0 0 0 1 0 1 0 0 0 0 0 0 0 0 0 0 0 0 0 0 0 0
0 0 0 0 0 0 0 1 14 15 18 18 17 19 13 10 14 11 10 11 11 12 17 13 8 28 18 0 0 0 2 4 2 3 2 0 0 0 0 4 4 3 1 2 4 5 5 4 7 11 3 6 4 5 2 2 2 1 0 0 0 1 2 2 3 1 1 0 1 1 1 2 2 1 2 3 2 3 2 0 0 0 0 0 0
0 0 0 0 1 0 5 7 10 8 7 4 0 1 0 0 3 8 12 13 8 18 10 5 2 8 49 3 0 0 9 6 7 0 2 2 0 0 0 2 4 1 2 3 3 6 8 5 2 3 7 6 7 6 1 2 0 0 0 1 1 0 0 2 3 3 3 2 1 1 1 0 1 1 3 4 6 4 2 2 3 3 3 2 2
0 2 2 8 15 18 12 10 9 5 7 0 6 1 6 1 2 10 6 1 4 9 2 0 3 23 52 66 66 48 69 64 25 18 17 3 0 0 0 0 7 11 1 0 1 4 7 1 2 2 4 7 6 6 6 3 2 2 2 2 3 2 3 4 3 3 2 4 1 3 1 2 2 3 0 1 1 5 3 4 4 5 6 8 8
0 0 1 2 5 16 8 14 12 6 6 5 3 6 7 9 14 15 8 6 1 0 4 1 2 10 14 45 71 32 42 47 26 11 2 0 0 0 2 1 0 0 1 1 2 4 4 2 1 6 5 6 4 4 2 4 2 3 4 5 4 5 5 6 4 2 2 4 0 0 2 1 0 1 10 10 9 9 9 4 4 5 10 11 10
1 2 1 0 4 2 2 0 0 5 5 3 4 4 5 10 14 14 9 3 0 0 0 0 1 10 27 60 46 39 26 23 12 1 2 0 0 0 2 1 1 2 1 1 2 2 5 6 5 4 4 5 6 6 6 5 4 3 4 0 0 0 0 0 0 1 3 2 1 1 2 0 1 1 0 12 15 11 12 11 11 10 2 4 4
5 2 5 3 0 2 10 5 14 11 11 2 5 5 4 9 14 16 13 6 4 5 5 7 12 16 0 4 10 5 0 0 0 0 0 0 1 1 3 1 0 0 1 3 5 3 2 2 1 6 5 6 6 5 7 6 0 4 0 0 0 0 1 1 1 1 0 0 1 4 0 1 1 1 12 12 12 11 11 7 11 7 5 1 8
0 0 2 4 4 5 4 6 9 8 7 4 5 8 2 3 10 10 14 5 9 7 7 4 3 3 2 12 6 6 0 0 0 0 1 3 6 0 0 0 0 0 3 1 2 1 1 3 5 4 4 5 6 6 5 2 1 3 0 0 0 1 3 4 3 2 1 0 2 0 0 1 8 3 15 14 11 10 1 1 1 2 20 3 4
5 3 3 0 1 1 2 4 4 5 9 10 12 8 8 9 10 4 6 8 10 9 10 9 4 4 3 5 6 7 7 6 7 4 5 4 6 1 3 1 4 7 6 3 3 4 3 8 8 8 2 8 2 0 0 5 1 0 0 0 1 2 2 2 0 0 0 7 6 3 0 0 8 7 8 0 2 1 3 2 2 6 2 13 20
0 0 0 0 0 0 0 1 4 10 9 7 10 2 6 6 11 6 8 9 8 9 10 13 6 1 8 10 7 7 6 8 8 4 10 4 2 6 11 6 6 1 1 0 0 7 0 0 0 5 5 0 1 0 0 1 0 1 2 3 3 4 3 1 2 0 0 0 2 1 0 8 12 3 4 1 2 4 2 2 17 17 7 1 4
Wind_Speed
15 15 14 14 13 14 13 14 11 10 9 9 8 9 9 9 8 8 10 9 10 10 9 7 6 6 6 8 8 8 10 7 8 8 9 6 5 4 3 4 6 5 4 2 1 1 3 3 3 3 3 3 3 2 3 3 5 5 3 3 4 4 4 3 2 1 3 4 2 3 4 4 5 7 7 7 8 12 16 11 11 10 10 13 24
14 17 13 15 15 14 14 16 14 13 11 10 10 9 9 11 10 10 9 10 10 9 10 9 8 7 6 6 7 8 10 10 8 9 9 11 8 7 4 6 6 4 3 5 3 3 3 4 4 4 5 5 5 5 6 5 4 5 5 8 6 3 5 4 3 3 3 6 5 5 4 6 4 8 8 7 7 9 10 13 12 12 nan 14 24
14 19 14 16 16 14 14 15 16 14 12 12 11 11 12 11 12 10 10 11 12 10 10 9 10 9 8 8 8 8 9 10 10 9 9 9 9 6 9 8 8 6 4 6 5 6 5 5 5 5 6 6 7 8 6 5 4 6 8 13 7 5 7 6 5 5 3 4 7 7 7 7 6 7 8 9 10 10 11 13 14 14 13 16 15
33 26 21 20 16 15 14 14 13 14 13 14 13 13 13 14 13 12 11 12 13 14 11 11 10 11 11 10 10 9 9 9 9 10 10 9 9 9 8 11 11 12 7 9 8 8 7 8 6 5 5 6 6 5 7 8 8 6 5 8 10 10 9 10 9 5 4 3 6 6 7 7 7 8 9 11 11 13 13 14 15 15 15 16 16
20 22 18 20 18 17 14 15 14 12 13 14 15 15 15 14 16 15 13 13 14 15 15 14 13 13 12 11 10 10 9 10 10 10 10 12 10 12 11 10 10 9 10 11 8 11 11 7 8 8 9 8 9 8 7 9 9 9 9 8 7 7 7 6 6 6 5 4 5 7 6 6 7 7 10 11 12 14 18 19 17 17 18 17 19
25 21 26 25 21 19 18 20 14 14 13 12 14 15 16 16 16 17 16 15 15 15 16 17 16 15 14 13 12 11 11 10 11 11 11 11 12 12 13 15 11 9 11 12 12 14 10 11 11 9 8 9 9 11 10 9 8 12 12 10 9 8 8 7 6 6 6 5 5 7 8 7 8 9 7 9 11 14 14 13 17 19 19 19 19
18 23 23 21 20 20 19 17 18 17 21 21 25 23 16 14 17 16 19 17 16 16 17 17 18 18 17 15 14 13 12 11 12 12 12 12 12 12 14 18 13 12 11 11 12 11 12 12 13 14 11 11 10 9 13 9 11 9 10 12 9 9 9 10 7 6 8 9 8 7 9 11 15 13 18 21 11 18 14 14 14 13 17 20 21
19 19 21 22 20 20 18 25 26 20 22 23 21 22 25 20 16 15 17 18 18 17 16 18 19 19 18 18 17 18 20 18 15 14 15 15 17 14 16 14 15 18 20 18 18 20 16 11 11 10 20 16 16 18 18 14 12 13 16 16 17 20 15 10 10 12 12 11 11 12 12 12 15 16 21 21 13 16 18 21 18 14 10 17 22
21 21 21 20 20 19 23 25 20 17 19 19 20 23 26 26 22 23 21 16 18 17 17 17 18 20 19 17 17 23 22 18 22 24 23 18 19 20 15 14 18 21 21 20 17 16 15 17 16 17 25 15 16 16 17 17 18 19 20 23 25 20 17 15 19 19 14 12 13 14 14 14 16 20 18 18 21 18 19 22 18 12 10 13 19
22 21 20 22 22 21 24 25 25 23 22 21 21 24 24 24 27 29 31 26 18 18 19 18 17 18 19 19 18 24 24 30 31 26 20 23 22 25 26 20 19 21 22 19 17 15 16 19 20 17 18 16 16 16 18 19 19 20 21 23 23 21 21 20 21 20 21 19 16 14 13 15 17 19 20 22 24 24 24 25 20 12 10 12 19
24 23 21 24 28 20 23 27 26 26 27 26 26 26 25 24 26 28 29 28 29 26 21 18 20 19 19 21 28 35 26 30 30 32 31 24 20 22 24 22 16 16 20 19 18 18 18 20 21 25 24 25 23 15 20 22 21 21 21 22 26 27 21 22 19 21 22 19 21 19 15 12 16 20 19 22 24 27 27 27 25 16 13 17 21
25 24 26 25 31 22 23 28 29 31 29 25 26 26 28 28 26 26 29 30 32 31 32 31 28 29 30 35 33 32 34 36 35 36 31 28 27 23 22 23 20 18 22 20 20 23 24 26 28 28 25 22 21 21 25 25 27 24 22 25 30 31 31 25 21 21 22 21 20 19 21 21 17 17 16 22 25 26 28 29 27 24 18 16 22
26 25 26 26 28 25 23 25 28 29 31 29 28 31 32 30 28 28 29 33 33 32 31 32 29 27 30 35 35 34 36 40 37 39 36 34 33 28 24 21 26 22 19 21 25 27 28 30 29 28 28 22 20 22 25 24 26 27 31 32 30 27 26 27 26 23 24 20 17 16 23 22 18 18 22 25 29 27 28 28 28 25 20 18 22
27 28 28 27 27 28 28 29 30 31 31 31 32 33 35 35 31 31 33 35 34 35 34 34 33 34 38 40 37 37 39 40 39 39 38 37 35 32 27 25 25 28 27 24 23 26 27 30 31 31 32 29 27 28 29 29 30 30 30 29 28 28 29 30 32 29 27 25 24 21 22 25 21 21 23 27 29 30 32 31 28 24 24 22 22
31 32 31 30 31 29 28 31 29 30 30 29 27 28 28 31 34 36 37 37 36 36 36 37 37 37 38 40 38 39 41 41 43 41 41 40 37 32 29 28 30 30 24 22 24 21 25 29 29 32 39 34 33 35 33 33 33 33 31 28 27 26 28 29 30 31 31 30 27 23 24 26 26 25 26 30 31 32 34 33 30 27 25 23 26
29 26 24 24 23 24 22 22 25 26 26 26 25 25 26 30 36 40 42 43 42 42 40 40 40 40 39 39 37 42 43 46 44 43 42 41 36 33 33 31 31 32 34 29 30 34 34 30 31 33 35 44 43 41 40 35 36 34 31 28 26 25 27 28 32 35 33 34 33 30 30 32 37 34 36 35 33 34 34 33 30 30 30 28 29
25 24 24 23 22 20 19 18 18 20 21 21 23 28 28 30 35 37 39 41 43 45 44 44 44 45 45 43 43 43 45 46 47 48 47 45 40 37 36 33 31 34 36 36 38 36 34 34 32 32 34 43 45 45 43 38 36 34 32 30 29 27 25 29 30 31 35 35 32 32 33 34 35 38 38 40 39 38 40 36 32 32 35 35 32
20 20 20 20 20 21 23 25 26 25 24 25 27 27 26 26 26 28 33 37 42 45 45 47 49 46 46 47 47 47 49 49 50 49 50 49 44 40 38 35 30 33 40 40 38 36 36 39 43 41 42 44 45 45 43 40 37 35 33 32 30 28 26 28 30 36 38 36 36 34 32 34 37 38 37 37 39 36 37 36 36 33 31 34 34
22 23 23 24 26 27 28 28 27 28 27 24 26 27 26 25 23 21 24 30 35 40 45 49 51 49 48 48 50 48 47 49 51 51 50 51 49 44 43 39 42 43 43 43 41 40 43 49 53 49 45 44 48 46 45 43 38 36 35 33 32 30 32 35 33 30 33 32 32 38 37 38 40 39 35 36 37 38 41 41 40 38 35 33 33
24 24 25 26 27 28 28 27 28 29 27 27 28 28 26 26 27 23 23 25 27 29 33 37 42 47 50 53 52 47 46 46 49 51 52 50 53 50 46 43 45 46 46 45 42 43 46 46 51 53 51 48 nan nan nan nan nan nan nan nan 35 37 42 38 36 37 35 34 31 31 32 33 34 38 41 37 36 42 42 40 39 39 39 40 35
27 27 28 28 29 28 28 29 29 29 30 31 31 31 32 34 36 nan nan 34 31 29 29 27 28 32 37 44 49 52 53 nan nan nan 50 50 54 54 48 44 41 41 nan nan 43 41 43 45 43 52 51 nan nan nan nan nan nan nan nan nan nan nan nan nan nan nan nan 36 35 36 37 33 35 36 35 39 41 42 43 43 43 45 46 nan nan
29 30 30 31 32 31 30 30 31 31 32 32 33 34 35 36 35 35 34 32 32 32 30 30 29 28 27 28 nan nan nan nan nan nan nan nan nan nan nan nan nan nan nan nan nan nan nan nan nan nan nan nan nan nan nan nan nan nan nan nan nan nan nan nan nan nan nan nan 39 39 39 37 37 40 45 44 44 44 43 43 45 47 nan nan nan
29 29 31 32 32 33 32 33 31 31 32 33 34 34 34 34 34 33 32 31 30 30 30 30 30 29 nan nan nan nan nan nan nan nan nan nan nan nan nan nan nan nan nan nan nan nan nan nan nan nan nan nan nan nan nan nan nan nan nan nan nan nan nan nan nan nan nan nan 45 49 nan nan 50 50 48 47 45 43 43 42 nan nan nan nan nan
28 30 nan nan nan nan 33 32 32 32 33 nan nan nan nan nan nan nan nan nan nan 29 nan nan nan nan nan nan nan nan nan nan nan nan nan nan nan nan nan nan nan nan nan nan nan nan nan nan nan nan nan nan nan nan nan nan nan nan nan nan nan nan nan nan nan nan nan nan nan nan nan nan 51 50 47 46 nan nan nan nan nan nan nan nan nan
28 29 nan nan nan nan nan nan nan nan nan nan nan nan nan nan nan nan nan nan nan nan nan nan nan nan nan nan nan nan nan nan nan nan nan nan nan nan nan nan nan nan nan nan nan nan nan nan nan nan nan nan nan nan nan nan nan nan nan nan nan nan nan nan nan nan nan nan nan nan nan nan nan 50 49 nan nan nan nan nan nan nan nan nan nan
nan nan nan nan nan nan nan nan nan nan nan nan nan nan nan nan nan nan nan nan nan nan nan nan nan nan nan nan nan nan nan nan nan nan nan nan nan nan nan nan nan nan nan nan nan nan nan nan nan nan nan nan nan nan nan nan nan nan nan nan nan nan nan nan nan nan nan nan nan nan nan nan nan 48 48 nan nan nan nan nan nan nan nan nan nan
nan nan nan nan nan nan nan nan nan nan nan nan nan nan nan nan nan nan nan nan nan nan nan nan nan nan nan nan nan nan nan nan nan nan nan nan nan nan nan nan nan nan nan nan nan nan nan nan nan nan nan nan nan nan nan nan nan nan nan 44 nan nan nan nan nan nan nan nan nan nan nan nan nan nan nan nan nan nan nan nan nan nan nan nan nan
nan nan nan nan nan nan nan nan nan nan nan nan nan nan nan nan nan nan nan nan nan nan nan nan nan nan nan nan nan nan nan nan nan nan nan nan nan nan nan nan nan nan nan nan nan nan nan nan nan 39 39 41 40 nan 38 nan nan nan nan nan nan nan nan nan nan nan nan nan nan nan nan nan nan nan nan nan nan nan nan nan nan nan nan nan nan
nan nan nan nan nan nan nan nan nan nan nan nan nan nan nan nan nan nan nan nan nan nan nan nan nan nan nan nan nan nan nan nan nan nan nan nan nan nan nan nan nan nan nan nan nan nan nan nan nan nan nan nan nan nan nan nan nan nan nan nan nan nan nan nan nan nan nan nan nan nan nan nan nan nan nan nan nan nan nan nan nan nan nan nan nan
nan nan nan nan nan nan nan nan nan nan nan nan nan nan nan nan nan nan nan nan nan nan nan nan nan nan nan nan nan nan nan nan nan nan nan nan nan nan nan nan nan nan nan nan nan nan nan nan nan nan nan nan nan nan nan nan nan nan nan nan nan nan nan nan nan nan nan nan nan nan nan nan nan nan nan nan nan nan nan nan nan nan nan nan nan
nan nan nan nan nan nan nan nan nan nan nan nan nan nan nan nan nan nan nan nan nan nan nan nan nan nan nan nan nan nan nan nan nan nan nan nan nan nan nan nan nan nan nan nan 40 nan nan nan nan nan nan nan nan nan nan nan nan nan nan nan nan nan nan nan nan nan nan nan nan nan nan nan nan nan nan nan nan nan nan nan nan nan nan nan nan
nan nan nan nan nan nan nan nan nan nan nan nan nan nan nan nan nan nan nan nan nan nan nan nan nan nan nan nan nan nan nan nan nan nan nan nan nan nan nan nan nan nan nan nan 46 nan nan nan nan nan nan nan nan nan nan nan nan nan nan nan nan nan nan nan nan nan nan nan nan nan nan nan nan nan nan nan nan nan nan nan nan nan nan nan nan
nan nan nan nan nan nan nan nan nan nan nan nan nan nan nan nan nan nan nan nan nan nan nan nan nan nan nan nan nan nan nan nan nan nan nan nan nan nan nan nan nan nan nan nan nan nan nan nan nan nan nan nan nan nan nan nan nan nan nan nan nan nan nan nan nan nan nan nan nan nan nan nan nan nan nan nan nan nan nan nan nan nan nan nan nan
nan nan nan nan nan nan nan nan nan nan nan nan nan nan nan nan nan nan nan nan nan nan nan nan nan nan nan nan nan nan nan nan nan nan nan nan nan nan nan nan nan nan nan nan nan nan nan nan nan nan nan nan nan nan nan nan nan nan nan nan nan nan nan nan nan nan nan nan nan nan nan nan nan nan nan nan nan nan nan nan nan nan nan nan nan
nan nan nan nan 26 nan nan nan nan nan nan nan nan nan nan nan nan nan nan nan nan nan nan nan nan nan nan nan nan nan nan nan nan nan nan nan nan nan nan nan 41 nan nan nan nan nan nan nan nan nan nan nan nan nan nan nan nan nan nan nan nan nan nan nan nan nan nan nan nan nan nan nan nan nan nan nan nan nan nan nan nan nan nan nan nan
nan nan nan nan nan nan nan nan nan nan nan nan nan nan nan nan nan nan nan nan nan nan nan nan nan nan nan nan nan nan nan nan nan nan nan nan nan nan nan nan nan nan nan nan nan nan nan nan nan nan nan nan nan nan nan nan nan nan nan nan nan nan nan nan nan nan nan nan nan nan nan nan nan nan nan nan nan nan nan nan nan nan nan nan nan
nan nan nan nan nan nan nan nan nan nan nan nan nan nan nan nan nan nan nan nan nan nan nan nan nan nan nan nan nan nan nan nan nan nan nan nan nan nan nan nan nan nan nan nan nan nan nan nan nan nan nan nan nan nan nan nan nan nan nan nan nan nan nan nan nan nan nan nan nan nan nan nan nan nan nan nan nan nan nan nan nan nan nan nan nan
nan nan nan nan 24 nan nan nan nan nan nan nan nan nan nan nan nan nan nan nan nan nan nan nan nan nan nan nan nan nan nan nan nan nan nan nan nan nan nan nan nan nan nan nan nan nan nan nan nan nan nan nan nan nan nan nan nan nan nan nan nan nan nan nan nan nan nan nan nan nan nan nan nan nan nan nan nan nan nan nan nan nan nan nan nan
nan nan nan nan nan nan nan nan nan nan nan nan nan nan nan nan nan nan nan nan nan nan nan nan nan nan nan nan nan nan nan nan nan nan nan nan nan nan nan nan nan nan nan nan nan nan nan nan nan nan nan nan nan nan nan nan nan nan nan nan nan nan nan nan nan nan nan nan nan nan nan nan nan nan nan nan nan nan nan nan nan nan nan nan nan
nan nan nan nan nan nan nan nan nan nan nan nan nan nan nan nan nan nan nan nan nan nan nan nan nan nan nan nan nan nan nan nan nan nan nan nan nan nan nan nan nan nan nan nan nan nan nan nan nan nan nan nan nan nan nan nan nan nan nan nan nan nan nan nan nan nan nan nan nan nan nan nan nan nan nan nan nan nan nan nan nan nan nan nan nan
nan nan nan nan nan nan nan nan nan nan nan nan nan nan nan nan nan nan nan nan nan nan nan nan nan 50 nan nan nan nan nan nan nan nan nan nan nan nan nan nan nan nan nan nan nan nan nan nan nan nan nan nan nan nan nan nan nan nan nan nan nan nan nan nan nan nan nan nan nan nan nan nan nan nan nan nan nan nan nan nan nan nan nan nan nan
nan nan nan nan nan nan nan nan nan nan nan nan nan nan nan nan nan nan nan nan nan nan nan nan nan nan nan nan nan nan nan nan nan nan nan nan nan nan nan nan nan nan nan nan nan nan nan nan nan nan nan nan nan nan nan nan nan nan nan nan nan nan nan nan nan nan nan nan nan nan nan nan nan nan nan nan nan nan nan nan nan nan nan nan nan
nan nan nan nan nan nan nan nan nan nan nan nan nan nan nan nan nan nan nan nan nan nan nan nan nan nan nan nan nan nan nan nan nan nan nan nan nan nan nan nan nan nan nan nan nan nan nan nan nan nan nan nan nan nan nan nan nan nan nan nan nan nan nan nan nan nan nan nan nan nan nan nan nan nan nan nan nan nan nan nan nan nan nan nan nan
nan nan nan nan nan nan nan nan nan nan nan nan nan nan nan nan nan nan nan nan nan nan nan nan nan nan nan nan nan nan nan nan nan nan nan nan nan nan nan nan nan nan nan nan nan nan nan nan nan nan nan nan nan nan nan nan nan nan nan nan nan nan nan nan nan nan nan nan nan nan nan nan nan nan nan nan nan nan nan nan nan nan nan nan nan
nan nan nan nan nan nan nan nan nan nan nan nan nan nan nan nan nan nan nan nan nan nan nan nan nan nan nan nan nan nan nan nan nan nan nan nan nan nan nan nan nan nan nan nan nan nan nan nan nan nan nan nan nan nan nan nan nan nan nan nan nan nan nan nan nan nan nan nan nan nan nan nan nan nan nan nan nan nan nan nan nan nan nan nan nan
nan nan nan nan nan nan nan nan nan nan nan nan nan nan nan nan nan nan nan nan nan nan nan nan nan nan nan nan nan nan nan nan nan nan nan nan nan nan nan nan nan nan nan nan nan nan nan nan nan nan nan nan nan nan nan nan nan nan nan nan nan nan nan nan nan nan nan nan nan nan nan nan nan nan nan nan nan nan nan nan nan nan nan nan nan
nan nan nan nan nan nan nan nan nan nan nan nan nan nan nan nan nan nan nan nan nan nan nan nan nan nan nan nan nan nan nan nan nan nan nan nan nan nan nan nan nan nan nan nan nan nan nan nan nan nan nan nan nan nan nan nan nan nan nan nan nan nan nan nan nan nan nan nan nan nan nan nan nan nan nan nan nan nan nan nan nan nan nan nan nan
nan nan nan nan nan nan nan nan nan nan nan nan nan nan nan nan nan nan nan nan nan nan nan nan nan nan nan nan nan nan nan nan nan nan nan nan nan nan nan nan nan nan nan nan nan nan nan nan nan nan nan nan nan nan nan nan nan nan nan nan nan nan nan nan nan nan nan nan nan nan nan nan nan nan nan nan nan nan nan nan nan nan nan nan nan
nan nan nan nan nan nan nan nan nan nan nan nan nan nan nan nan nan nan nan nan nan nan nan nan nan nan nan nan nan nan nan nan nan nan nan nan nan nan nan nan nan nan nan nan nan nan nan nan nan nan nan nan nan nan nan nan nan nan nan nan nan nan nan nan nan nan nan nan nan nan nan nan nan nan nan nan nan nan nan nan nan nan nan nan nan
nan nan nan nan nan nan nan nan nan nan nan nan nan nan nan nan nan nan nan nan nan nan nan nan nan nan nan nan nan nan nan nan nan nan nan nan nan nan nan nan nan nan nan nan nan nan nan nan nan nan nan nan nan nan nan nan nan nan nan nan nan nan nan nan nan nan nan nan nan nan nan nan nan nan nan nan nan nan nan nan nan nan nan nan nan
nan nan nan nan nan nan nan nan nan nan nan nan nan nan nan nan nan nan nan nan nan nan nan nan nan nan nan nan nan nan nan nan nan nan nan nan nan nan nan nan nan nan nan nan nan nan nan nan nan nan nan nan nan nan nan nan nan nan nan nan nan nan nan nan nan nan nan nan nan nan nan nan nan nan nan nan nan nan nan nan nan nan nan nan nan
Wind_Direction
268 266 262 266 265 272 274 276 277 273 271 275 273 279 281 284 282 281 282 287 284 295 296 296 293 294 299 299 304 296 288 283 294 300 284 291 284 299 306 295 311 324 316 339 332 319 333 326 338 341 344 5 345 353 350 345 348 338 317 307 333 331 328 326 333 330 315 306 287 270 298 297 303 298 295 313 319 316 316 306 306 317 324 316 315
264 260 249 255 267 263 268 271 271 269 273 268 274 270 271 272 273 271 271 271 277 281 290 289 290 290 287 288 282 289 290 291 277 280 288 287 281 253 305 295 288 290 275 273 277 284 283 308 332 346 343 351 360 6 356 353 352 350 324 321 303 317 330 316 336 360 337 318 316 305 292 290 306 316 320 311 314 302 318 310 310 316 nan 301 311
254 266 263 257 255 257 263 267 272 278 279 274 273 272 271 267 267 267 268 269 271 267 271 274 273 275 276 267 274 273 273 279 281 272 269 276 287 293 269 278 277 267 287 296 297 298 305 311 315 322 317 331 338 347 349 349 334 310 309 297 327 331 310 323 334 5 355 308 312 322 317 307 321 309 314 315 312 315 317 321 315 315 306 304 302
233 227 241 254 254 258 259 258 269 275 277 276 279 279 275 275 271 268 269 267 270 270 265 263 264 264 262 264 263 265 272 277 271 276 280 279 274 274 267 268 280 287 303 306 307 306 299 302 303 296 302 298 295 299 324 317 323 317 304 309 317 322 331 334 349 342 330 322 305 309 308 310 318 328 320 324 329 318 312 309 318 320 314 310 310
253 264 258 258 256 241 245 268 272 269 272 275 285 285 283 279 278 280 275 272 274 275 278 274 267 269 270 269 268 269 272 277 280 276 279 282 285 279 285 278 272 290 277 262 264 268 276 294 298 302 304 314 313 311 307 323 318 312 313 311 315 313 314 319 328 327 323 331 301 287 286 294 305 316 321 321 319 320 321 321 320 316 314 319 315
244 245 244 253 252 251 244 230 232 267 268 275 284 289 290 289 287 286 287 285 281 282 282 282 280 278 275 272 273 276 278 282 285 285 280 276 279 279 275 280 280 282 289 296 294 293 290 296 299 306 304 305 311 306 294 276 304 312 313 312 310 310 305 299 312 320 320 310 288 284 281 287 281 279 288 291 298 301 302 312 315 313 312 315 311
241 252 263 267 264 261 249 242 241 228 242 242 241 238 242 272 289 289 287 288 288 287 287 286 282 281 282 281 276 272 267 273 276 280 275 270 271 273 269 276 282 278 273 269 282 283 279 292 306 305 309 291 289 287 271 285 281 276 290 289 285 301 308 300 292 295 299 282 280 284 280 276 276 282 270 262 273 278 281 289 286 285 308 309 308
258 259 262 263 263 265 264 258 246 238 238 235 239 256 254 228 234 268 281 283 287 286 286 289 289 287 285 290 290 279 263 246 247 260 263 256 246 245 249 261 265 260 256 255 252 256 259 245 243 284 272 263 274 275 283 274 272 283 274 263 258 243 238 259 282 277 275 293 289 274 269 271 281 286 285 284 286 285 286 279 277 268 271 303 306
251 257 260 261 263 261 264 267 272 261 255 256 258 259 261 263 257 242 236 256 278 281 284 280 280 288 287 282 286 285 281 278 262 248 250 253 262 262 255 241 252 257 258 259 265 272 279 283 281 259 280 300 285 289 284 284 283 277 275 278 272 276 272 271 276 274 262 253 266 274 278 282 284 276 274 283 279 277 272 271 275 273 286 303 309
252 259 261 261 258 264 267 262 258 250 248 254 262 264 261 254 254 259 259 237 233 260 271 270 272 274 277 274 272 273 266 260 252 250 254 254 249 251 255 259 257 260 265 268 265 263 267 264 262 263 250 267 281 285 278 272 272 271 272 272 278 282 284 274 267 271 273 275 263 260 273 282 283 283 279 282 290 291 284 283 281 281 283 308 305
247 250 256 260 259 260 263 262 264 267 264 259 255 252 256 254 256 258 252 253 257 247 238 253 259 259 262 266 252 252 256 252 250 262 245 234 244 253 262 262 261 263 266 269 265 263 267 267 263 256 258 259 251 236 253 266 267 270 271 275 274 276 273 271 272 272 275 274 282 282 277 268 268 268 281 281 284 284 287 287 290 292 312 313 304
249 249 253 255 263 260 265 265 263 266 271 273 269 268 265 263 262 260 259 251 249 256 256 253 254 249 245 246 256 256 254 243 242 252 258 250 245 245 251 258 259 256 253 252 258 259 256 259 257 258 258 254 250 253 261 268 274 276 275 276 278 278 281 280 271 269 274 273 270 279 283 283 278 285 281 272 274 282 286 289 289 292 295 308 307
243 246 250 251 259 275 275 270 271 277 277 273 269 269 269 267 262 258 260 256 252 253 254 258 264 263 254 252 250 251 256 246 243 243 246 243 241 240 254 251 249 244 258 260 254 253 255 259 262 265 270 281 284 274 266 267 267 270 277 278 279 282 285 290 293 285 276 279 279 276 283 280 280 283 283 280 286 285 282 280 282 283 290 299 299
241 245 248 253 257 260 264 270 275 277 279 279 276 271 268 265 262 258 256 258 260 259 257 252 251 250 254 260 259 256 251 241 240 241 242 241 238 236 245 245 252 247 237 248 257 258 269 270 267 266 268 263 263 258 257 257 256 258 263 266 271 280 287 290 292 297 294 287 284 279 274 277 275 271 273 278 283 283 284 284 283 286 290 290 282
240 246 251 254 258 259 263 268 269 273 276 278 281 278 269 261 261 259 258 260 262 262 261 261 258 257 256 259 262 259 254 248 246 243 242 240 240 241 248 247 250 252 252 256 268 264 256 260 263 270 276 280 268 258 254 253 254 257 258 263 265 270 278 282 285 285 287 287 287 282 275 273 274 267 268 278 283 283 284 286 286 290 285 282 283
234 238 246 249 250 254 258 262 265 267 272 278 287 292 283 267 258 253 254 254 255 258 259 260 260 259 260 261 261 260 253 246 247 247 244 242 242 251 250 249 249 248 247 246 241 241 242 245 251 254 264 269 262 258 255 252 254 257 258 256 262 268 271 274 275 280 283 282 283 282 280 276 267 265 268 274 278 276 276 278 281 282 280 279 279
230 234 239 246 252 256 260 265 271 275 278 284 291 293 290 275 260 255 255 256 255 255 256 255 254 254 256 259 260 260 257 250 249 248 246 242 246 253 253 250 252 254 250 245 246 246 244 246 251 256 254 259 255 253 248 247 254 255 256 259 260 263 267 269 278 290 290 289 287 291 291 288 280 278 277 278 280 277 275 274 280 281 281 282 283
252 252 254 258 265 268 271 269 268 270 269 276 276 273 276 277 270 259 257 257 254 253 256 256 254 252 254 258 261 264 261 254 250 250 250 246 247 252 255 257 253 251 254 251 255 258 255 244 244 253 256 256 254 253 249 249 253 253 256 258 258 260 262 261 262 270 286 290 292 292 292 289 284 277 277 279 274 276 279 280 273 273 276 281 284
271 269 268 269 270 272 273 276 279 280 275 269 274 283 284 284 272 264 260 260 259 257 257 258 257 255 256 259 261 263 263 259 254 253 252 250 249 249 251 252 252 250 250 250 249 254 259 264 261 261 260 257 253 251 249 249 252 252 254 255 257 259 257 253 259 265 268 270 278 282 281 283 281 279 275 274 276 277 275 279 281 282 282 277 273
282 278 274 272 272 273 277 280 279 280 280 274 268 271 275 275 275 277 281 278 272 266 267 265 262 258 254 253 255 259 263 264 259 256 255 251 247 249 251 253 253 249 249 250 250 254 254 258 265 262 260 257 nan nan nan nan nan nan nan nan 257 256 255 253 256 260 263 267 268 269 268 271 280 283 282 284 283 277 278 282 285 285 284 279 279
271 272 273 273 273 272 273 277 281 283 282 282 282 279 279 282 284 nan nan 288 285 283 282 282 277 269 262 259 257 256 258 nan nan nan 258 255 250 248 252 254 256 257 nan nan 253 255 255 255 255 259 258 nan nan nan nan nan nan nan nan nan nan nan nan nan nan nan nan 267 267 264 266 270 275 274 277 281 281 284 281 276 277 276 275 nan nan
265 267 268 269 270 271 273 274 276 277 279 281 280 280 283 286 290 292 293 292 290 289 288 288 287 285 285 279 nan nan nan nan nan nan nan nan nan nan nan nan nan nan nan nan nan nan nan nan nan nan nan nan nan nan nan nan nan nan nan nan nan nan nan nan nan nan nan nan 268 265 263 266 266 265 263 264 267 270 272 274 276 277 nan nan nan
264 270 273 273 273 272 271 272 274 276 276 277 279 283 285 287 288 290 291 290 289 291 290 290 288 287 nan nan nan nan nan nan nan nan nan nan nan nan nan nan nan nan nan nan nan nan nan nan nan nan nan nan nan nan nan nan nan nan nan nan nan nan nan nan nan nan nan nan 267 266 nan nan 263 263 263 263 264 267 270 272 nan nan nan nan nan
263 261 nan nan nan nan 273 272 271 271 271 nan nan nan nan nan nan nan nan nan nan 287 nan nan nan nan nan nan nan nan nan nan nan nan nan nan nan nan nan nan nan nan nan nan nan nan nan nan nan nan nan nan nan nan nan nan nan nan nan nan nan nan nan nan nan nan nan nan nan nan nan nan 267 266 265 265 nan nan nan nan nan nan nan nan nan
257 258 nan nan nan nan nan nan nan nan nan nan nan nan nan nan nan nan nan nan nan nan nan nan nan nan nan nan nan nan nan nan nan nan nan nan nan nan nan nan nan nan nan nan nan nan nan nan nan nan nan nan nan nan nan nan nan nan nan nan nan nan nan nan nan nan nan nan nan nan nan nan nan 267 268 nan nan nan nan nan nan nan nan nan nan
nan nan nan nan nan nan nan nan nan nan nan nan nan nan nan nan nan nan nan nan nan nan nan nan nan nan nan nan nan nan nan nan nan nan nan nan nan nan nan nan nan nan nan nan nan nan nan nan nan nan nan nan nan nan nan nan nan nan nan nan nan nan nan nan nan nan nan nan nan nan nan nan nan 270 270 nan nan nan nan nan nan nan nan nan nan
nan nan nan nan nan nan nan nan nan nan nan nan nan nan nan nan nan nan nan nan nan nan nan nan nan nan nan nan nan nan nan nan nan nan nan nan nan nan nan nan nan nan nan nan nan nan nan nan nan nan nan nan nan nan nan nan nan nan nan 267 nan nan nan nan nan nan nan nan nan nan nan nan nan nan nan nan nan nan nan nan nan nan nan nan nan
nan nan nan nan nan nan nan nan nan nan nan nan nan nan nan nan nan nan nan nan nan nan nan nan nan nan nan nan nan nan nan nan nan nan nan nan nan nan nan nan nan nan nan nan nan nan nan nan nan 267 270 277 279 nan 279 nan nan nan nan nan nan nan nan nan nan nan nan nan nan nan nan nan nan nan nan nan nan nan nan nan nan nan nan nan nan
nan nan nan nan nan nan nan nan nan nan nan nan nan nan nan nan nan nan nan nan nan nan nan nan nan nan nan nan nan nan nan nan nan nan nan nan nan nan nan nan nan nan nan nan nan nan nan nan nan nan nan nan nan nan nan nan nan nan nan nan nan nan nan nan nan nan nan nan nan nan nan nan nan nan nan nan nan nan nan nan nan nan nan nan nan
nan nan nan nan nan nan nan nan nan nan nan nan nan nan nan nan nan nan nan nan nan nan nan nan nan nan nan nan nan nan nan nan nan nan nan nan nan nan nan nan nan nan nan nan nan nan nan nan nan nan nan nan nan nan nan nan nan nan nan nan nan nan nan nan nan nan nan nan nan nan nan nan nan nan nan nan nan nan nan nan nan nan nan nan nan
nan nan nan nan nan nan nan nan nan nan nan nan nan nan nan nan nan nan nan nan nan nan nan nan nan nan nan nan nan nan nan nan nan nan nan nan nan nan nan nan nan nan nan nan 279 nan nan nan nan nan nan nan nan nan nan nan nan nan nan nan nan nan nan nan nan nan nan nan nan nan nan nan nan nan nan nan nan nan nan nan nan nan nan nan nan
nan nan nan nan nan nan nan nan nan nan nan nan nan nan nan nan nan nan nan nan nan nan nan nan nan nan nan nan nan nan nan nan nan nan nan nan nan nan nan nan nan nan nan nan 274 nan nan nan nan nan nan nan nan nan nan nan nan nan nan nan nan nan nan nan nan nan nan nan nan nan nan nan nan nan nan nan nan nan nan nan nan nan nan nan nan
nan nan nan nan nan nan nan nan nan nan nan nan nan nan nan nan nan nan nan nan nan nan nan nan nan nan nan nan nan nan nan nan nan nan nan nan nan nan nan nan nan nan nan nan nan nan nan nan nan nan nan nan nan nan nan nan nan nan nan nan nan nan nan nan nan nan nan nan nan nan nan nan nan nan nan nan nan nan nan nan nan nan nan nan nan
nan nan nan nan nan nan nan nan nan nan nan nan nan nan nan nan nan nan nan nan nan nan nan nan nan nan nan nan nan nan nan nan nan nan nan nan nan nan nan nan nan nan nan nan nan nan nan nan nan nan nan nan nan nan nan nan nan nan nan nan nan nan nan nan nan nan nan nan nan nan nan nan nan nan nan nan nan nan nan nan nan nan nan nan nan
nan nan nan nan 268 nan nan nan nan nan nan nan nan nan nan nan nan nan nan nan nan nan nan nan nan nan nan nan nan nan nan nan nan nan nan nan nan nan nan nan 282 nan nan nan nan nan nan nan nan nan nan nan nan nan nan nan nan nan nan nan nan nan nan nan nan nan nan nan nan nan nan nan nan nan nan nan nan nan nan nan nan nan nan nan nan
nan nan nan nan nan nan nan nan nan nan nan nan nan nan nan nan nan nan nan nan nan nan nan nan nan nan nan nan nan nan nan nan nan nan nan nan nan nan nan nan nan nan nan nan nan nan nan nan nan nan nan nan nan nan nan nan nan nan nan nan nan nan nan nan nan nan nan nan nan nan nan nan nan nan nan nan nan nan nan nan nan nan nan nan nan
nan nan nan nan nan nan nan nan nan nan nan nan nan nan nan nan nan nan nan nan nan nan nan nan nan nan nan nan nan nan nan nan nan nan nan nan nan nan nan nan nan nan nan nan nan nan nan nan nan nan nan nan nan nan nan nan nan nan nan nan nan nan nan nan nan nan nan nan nan nan nan nan nan nan nan nan nan nan nan nan nan nan nan nan nan
nan nan nan nan 254 nan nan nan nan nan nan nan nan nan nan nan nan nan nan nan nan nan nan nan nan nan nan nan nan nan nan nan nan nan nan nan nan nan nan nan nan nan nan nan nan nan nan nan nan nan nan nan nan nan nan nan nan nan nan nan nan nan nan nan nan nan nan nan nan nan nan nan nan nan nan nan nan nan nan nan nan nan nan nan nan
nan nan nan nan nan nan nan nan nan nan nan nan nan nan nan nan nan nan nan nan nan nan nan nan nan nan nan nan nan nan nan nan nan nan nan nan nan nan nan nan nan nan nan nan nan nan nan nan nan nan nan nan nan nan nan nan nan nan nan nan nan nan nan nan nan nan nan nan nan nan nan nan nan nan nan nan nan nan nan nan nan nan nan nan nan
nan nan nan nan nan nan nan nan nan nan nan nan nan nan nan nan nan nan nan nan nan nan nan nan nan nan nan nan nan nan nan nan nan nan nan nan nan nan nan nan nan nan nan nan nan nan nan nan nan nan nan nan nan nan nan nan nan nan nan nan nan nan nan nan nan nan nan nan nan nan nan nan nan nan nan nan nan nan nan nan nan nan nan nan nan
nan nan nan nan nan nan nan nan nan nan nan nan nan nan nan nan nan nan nan nan nan nan nan nan nan 281 nan nan nan nan nan nan nan nan nan nan nan nan nan nan nan nan nan nan nan nan nan nan nan nan nan nan nan nan nan nan nan nan nan nan nan nan nan nan nan nan nan nan nan nan nan nan nan nan nan nan nan nan nan nan nan nan nan nan nan
nan nan nan nan nan nan nan nan nan nan nan nan nan nan nan nan nan nan nan nan nan nan nan nan nan nan nan nan nan nan nan nan nan nan nan nan nan nan nan nan nan nan nan nan nan nan nan nan nan nan nan nan nan nan nan nan nan nan nan nan nan nan nan nan nan nan nan nan nan nan nan nan nan nan nan nan nan nan nan nan nan nan nan nan nan
nan nan nan nan nan nan nan nan nan nan nan nan nan nan nan nan nan nan nan nan nan nan nan nan nan nan nan nan nan nan nan nan nan nan nan nan nan nan nan nan nan nan nan nan nan nan nan nan nan nan nan nan nan nan nan nan nan nan nan nan nan nan nan nan nan nan nan nan nan nan nan nan nan nan nan nan nan nan nan nan nan nan nan nan nan
nan nan nan nan nan nan nan nan nan nan nan nan nan nan nan nan nan nan nan nan nan nan nan nan nan nan nan nan nan nan nan nan nan nan nan nan nan nan nan nan nan nan nan nan nan nan nan nan nan nan nan nan nan nan nan nan nan nan nan nan nan nan nan nan nan nan nan nan nan nan nan nan nan nan nan nan nan nan nan nan nan nan nan nan nan
nan nan nan nan nan nan nan nan nan nan nan nan nan nan nan nan nan nan nan nan nan nan nan nan nan nan nan nan nan nan nan nan nan nan nan nan nan nan nan nan nan nan nan nan nan nan nan nan nan nan nan nan nan nan nan nan nan nan nan nan nan nan nan nan nan nan nan nan nan nan nan nan nan nan nan nan nan nan nan nan nan nan nan nan nan
nan nan nan nan nan nan nan nan nan nan nan nan nan nan nan nan nan nan nan nan nan nan nan nan nan nan nan nan nan nan nan nan nan nan nan nan nan nan nan nan nan nan nan nan nan nan nan nan nan nan nan nan nan nan nan nan nan nan nan nan nan nan nan nan nan nan nan nan nan nan nan nan nan nan nan nan nan nan nan nan nan nan nan nan nan
nan nan nan nan nan nan nan nan nan nan nan nan nan nan nan nan nan nan nan nan nan nan nan nan nan nan nan nan nan nan nan nan nan nan nan nan nan nan nan nan nan nan nan nan nan nan nan nan nan nan nan nan nan nan nan nan nan nan nan nan nan nan nan nan nan nan nan nan nan nan nan nan nan nan nan nan nan nan nan nan nan nan nan nan nan
nan nan nan nan nan nan nan nan nan nan nan nan nan nan nan nan nan nan nan nan nan nan nan nan nan nan nan nan nan nan nan nan nan nan nan nan nan nan nan nan nan nan nan nan nan nan nan nan nan nan nan nan nan nan nan nan nan nan nan nan nan nan nan nan nan nan nan nan nan nan nan nan nan nan nan nan nan nan nan nan nan nan nan nan nan
nan nan nan nan nan nan nan nan nan nan nan nan nan nan nan nan nan nan nan nan nan nan nan nan nan nan nan nan nan nan nan nan nan nan nan nan nan nan nan nan nan nan nan nan nan nan nan nan nan nan nan nan nan nan nan nan nan nan nan nan nan nan nan nan nan nan nan nan nan nan nan nan nan nan nan nan nan nan nan nan nan nan nan nan nan
nan nan nan nan nan nan nan nan nan nan nan nan nan nan nan nan nan nan nan nan nan nan nan nan nan nan nan nan nan nan nan nan nan nan nan nan nan nan nan nan nan nan nan nan nan nan nan nan nan nan nan nan nan nan nan nan nan nan nan nan nan nan nan nan nan nan nan nan nan nan nan nan nan nan nan nan nan nan nan nan nan nan nan nan nan
nan nan nan nan nan nan nan nan nan nan nan nan nan nan nan nan nan nan nan nan nan nan nan nan nan nan nan nan nan nan nan nan nan nan nan nan nan nan nan nan nan nan nan nan nan nan nan nan nan nan nan nan nan nan nan nan nan nan nan nan nan nan nan nan nan nan nan nan nan nan nan nan nan nan nan nan nan nan nan nan nan nan nan nan nan